Item Display Status Humidity-temperature Sensor

Elevation Above Sea Level: 3 m

 

Deployed Sensor

  • Serial Number: 20256988
  • NDBC Property Number: 42279
  • Start Date: 11/9/2018 (11:23:12 Z)
  • End Date: 7/15/2020 (12:00:00 Z)
Relative Humidity [%]     6 entries per hour
Showing data from 5/28/2020 (05:30:00 Z) to 5/27/2020 (00:00:01 Z)
Previous Next [ Day | 3-Days | 7-Days ]
First Last
Prev [ Day | 3-Days | 7-Days ] Next
First Last

Start Time:     :
End Time:     :     
Time (in GMT) :00 :50 :40 :30 :20 :10
Previous Next [ Day | 3-Days | 7-Days ]
First Last
Prev [ Day | 3-Days | 7-Days ] Next
First Last


123 => good data
MM => data is determined as missing
-- => data not received/configured
Back to Top Back to Top
5/28/2020 06:00 to 5:10 -- -- -- 99.85 99.74 99.58
5/28/2020 05:00 to 4:10 99.49 99.22 98.97 98.93 98.83 98.66
5/28/2020 04:00 to 3:10 98.43 98.41 98.35 98.07 97.89 97.66
5/28/2020 03:00 to 2:10 97.70 97.18 97.09 97.07 96.97 96.86
5/28/2020 02:00 to 1:10 96.76 96.45 96.03 95.84 95.70 95.76
5/28/2020 01:00 to 0:10 95.80 95.45 95.24 94.95 94.61 94.65
5/28/2020 00:00 to 23:10 95.13 94.72 94.59 94.47 94.57 94.57
5/27/2020 23:00 to 22:10 94.13 94.15 94.65 94.93 95.26 95.38
5/27/2020 22:00 to 21:10 95.41 95.18 95.20 95.53 95.70 95.72
5/27/2020 21:00 to 20:10 95.82 95.99 96.22 96.61 96.47 96.80
5/27/2020 20:00 to 19:10 96.59 96.84 96.99 96.95 96.89 97.18
5/27/2020 19:00 to 18:10 97.07 97.32 97.20 97.30 97.30 97.45
5/27/2020 18:00 to 17:10 97.55 97.51 97.85 97.85 97.72 97.76
5/27/2020 17:00 to 16:10 97.80 97.82 97.80 97.51 97.41 97.43
5/27/2020 16:00 to 15:10 97.14 97.07 97.09 97.03 96.99 97.12
5/27/2020 15:00 to 14:10 97.24 97.43 97.30 97.82 98.39 99.62
5/27/2020 14:00 to 13:10 -- -- -- -- -- --
5/27/2020 13:00 to 12:10 -- -- -- -- -- --
5/27/2020 12:00 to 11:10 -- -- -- -- -- --
5/27/2020 11:00 to 10:10 -- -- -- -- -- --
5/27/2020 10:00 to 9:10 -- -- -- -- -- --
5/27/2020 09:00 to 8:10 -- -- 99.87 99.81 99.74 99.74
5/27/2020 08:00 to 7:10 99.76 99.64 99.41 99.33 99.18 98.97
5/27/2020 07:00 to 6:10 98.70 98.47 98.49 98.32 98.43 98.43
5/27/2020 06:00 to 5:10 98.28 98.30 98.43 98.53 98.51 98.30
5/27/2020 05:00 to 4:10 98.22 97.99 97.64 97.43 97.20 97.14
5/27/2020 04:00 to 3:10 96.93 96.34 96.24 96.26 96.45 95.82
5/27/2020 03:00 to 2:10 95.55 95.26 94.99 94.68 94.74 94.47
5/27/2020 02:00 to 1:10 93.76 93.72 93.99 94.24 94.01 93.84
5/27/2020 01:00 to 0:10 94.68 95.22 94.76 94.13 94.20 94.59

 

 

 

Air Temperature [°C]     6 entries per hour
Showing data from 7/15/2020 (12:00:00 Z) to 7/14/2020 (00:00:01 Z)
Previous Next [ Day | 3-Days | 7-Days ]
First Last
Prev [ Day | 3-Days | 7-Days ] Next
First Last

Start Time:     :
End Time:     :     
Time (in GMT) :00 :50 :40 :30 :20 :10
Previous Next [ Day | 3-Days | 7-Days ]
First Last
Prev [ Day | 3-Days | 7-Days ] Next
First Last


123 => good data
MM => data is determined as missing
-- => data not received/configured
Back to Top Back to Top
7/15/2020 12:00 to 11:10 22.79 22.84 22.71 22.72 22.70 22.63
7/15/2020 11:00 to 10:10 22.51 22.80 22.69 22.82 22.75 22.77
7/15/2020 10:00 to 9:10 22.78 22.73 22.77 22.78 22.77 22.76
7/15/2020 09:00 to 8:10 22.82 22.82 22.74 22.76 22.89 22.85
7/15/2020 08:00 to 7:10 22.82 22.82 22.92 22.89 22.89 22.92
7/15/2020 07:00 to 6:10 22.92 22.89 22.97 22.91 22.91 22.98
7/15/2020 06:00 to 5:10 22.94 22.93 22.91 23.00 22.92 22.80
7/15/2020 05:00 to 4:10 22.89 22.91 22.89 22.86 23.00 22.95
7/15/2020 04:00 to 3:10 22.98 22.93 22.90 22.96 22.90 22.94
7/15/2020 03:00 to 2:10 -- -- -- -- -- --
7/15/2020 02:00 to 1:10 22.92 22.96 23.05 22.89 22.95 22.88
7/15/2020 01:00 to 0:10 22.91 22.90 23.09 23.21 23.25 23.19
7/15/2020 00:00 to 23:10 23.32 23.23 23.28 23.26 23.30 23.21
7/14/2020 23:00 to 22:10 23.32 23.30 23.22 23.34 23.23 23.11
7/14/2020 22:00 to 21:10 23.15 23.10 23.06 23.09 23.05 23.00
7/14/2020 21:00 to 20:10 22.99 22.95 22.87 22.91 22.83 22.97
7/14/2020 20:00 to 19:10 23.17 23.24 23.25 23.30 23.21 23.23
7/14/2020 19:00 to 18:10 23.23 23.20 23.07 23.06 23.10 23.10
7/14/2020 18:00 to 17:10 23.01 23.12 23.09 23.12 23.03 23.03
7/14/2020 17:00 to 16:10 23.04 23.02 23.02 22.98 22.97 23.07
7/14/2020 16:00 to 15:10 22.94 22.85 22.91 22.85 22.81 22.85
7/14/2020 15:00 to 14:10 22.72 22.73 22.76 22.70 22.59 22.57
7/14/2020 14:00 to 13:10 22.65 22.63 22.52 22.69 22.46 22.55
7/14/2020 13:00 to 12:10 22.53 22.52 22.64 22.70 22.63 22.51
7/14/2020 12:00 to 11:10 22.48 22.68 22.63 22.62 22.51 22.44
7/14/2020 11:00 to 10:10 22.48 22.37 22.47 22.46 22.67 22.75
7/14/2020 10:00 to 9:10 22.65 22.60 22.55 22.61 22.56 22.66
7/14/2020 09:00 to 8:10 22.71 22.70 22.69 22.64 22.69 22.67
7/14/2020 08:00 to 7:10 22.73 22.72 22.70 22.74 22.75 22.74
7/14/2020 07:00 to 6:10 22.78 22.77 22.81 22.79 22.91 22.98
7/14/2020 06:00 to 5:10 22.94 22.90 22.87 22.77 22.84 22.73
7/14/2020 05:00 to 4:10 22.71 22.77 22.74 22.82 22.81 22.76
7/14/2020 04:00 to 3:10 22.72 22.75 22.82 22.72 22.76 22.79
7/14/2020 03:00 to 2:10 22.83 22.72 22.79 22.83 22.77 22.73
7/14/2020 02:00 to 1:10 22.77 22.75 22.82 22.79 22.83 22.90
7/14/2020 01:00 to 0:10 22.88 22.82 23.01 23.11 23.09 23.06